Regional Weather Roundup
Issued by NWS

Home | Current Version | Previous Version | Graphics & Text | Print | Product List | Glossary On
Versions: 1 2 3 4 5 6 7 8 9 10 11 12 13 14 15 16 17 18 19 20 21 22 23 24 25 26 27 28 29 30 31 32 33 34 35 36 37 38 39 40 41 42 43 44 45 46 47 48 49 50
137
ASUS45 KTFX 060110
RWRMT
MONTANA REGIONAL WEATHER ROUNDUP
NATIONAL WEATHER SERVICE GREAT FALLS MT
600 PM MST FRI FEB 05 2016

NOTE: "FAIR" INDICATES FEW OR NO CLOUDS BELOW 12000 FEET WITH NO
SIGNIFICANT WEATHER AND/OR OBSTRUCTIONS TO VISIBILITY.

MTZ001>007-043-060200-
WEST OF THE DIVIDE

CITY           SKY/WX    TMP DP  RH WIND       PRES   REMARKS
KALISPELL      CLOUDY    35  30  82 SW6       30.23F WCI  30
MISSOULA       MOCLDY    34  27  75 NE3       30.29F
BUTTE          CLOUDY    32  20  61 CALM      30.26S
MULLAN PASS    CLOUDY    30  26  85 VRB6      30.20F WCI  24
ANACONDA         N/A     37  21  52 S13G18    30.25S WCI  29
DEER LODGE       N/A     30  23  74 CALM      30.27R
HAMILTON         N/A     39  27  60 SE5       30.27S
LIBBY            N/A     37  30  75 CALM      30.22F
$$

MTZ008-052>055-060200-
SOUTHWEST MONTANA

CITY           SKY/WX    TMP DP  RH WIND       PRES   REMARKS
BOZEMAN        CLOUDY    25  15  66 SE5       30.26F
DILLON         CLOUDY    27  18  69 SW17      30.28F WCI  14
ENNIS          CLEAR     27  16  63 S24G30    30.36S WCI  12
THREE FORKS      N/A     37   2  23 SW18      30.22F WCI  27
$$

MTZ009-010-012-014-046-048-049-054-060200-
EAST SLOPES AND CENTRAL MONTANA

CITY           SKY/WX    TMP DP  RH WIND       PRES   REMARKS
CUT BANK       CLOUDY    41  23  48 W38G48    29.96F
GREAT FALLS    CLOUDY    41  23  48 SW20      30.06F
MALMSTROM AFB  CLEAR     43  23  45 SW26G36   30.07F
HELENA         CLOUDY    37  25  61 E5        30.20S
CHOTEAU          N/A     45  19  36 SW18G26   30.04S
$$

MTZ011-013-016-021-045-047-050-051-060200-
NORTH CENTRAL MONTANA

CITY           SKY/WX    TMP DP  RH WIND       PRES   REMARKS
HAVRE          CLOUDY    45  27  49 SW18G29   29.98S
LEWISTOWN      CLOUDY    38  24  57 SW18      30.07S WCI  28
N BAR RANCH      N/A     34  21  60 NW5       30.07F
CHINOOK          N/A     45  25  45 S6        29.97R
$$

MTZ017>020-022>027-061-062-060200-
NORTHEAST MONTANA

CITY           SKY/WX    TMP DP  RH WIND       PRES   REMARKS
GLASGOW        CLOUDY    35  26  69 SW8       29.98F WCI  29
JORDAN           N/A     38  28  67 SW6       30.03F
SIDNEY         CLEAR     34  25  69 SW9       30.05F WCI  26
WOLF POINT     CLOUDY    35  26  69 SW7       30.01F WCI  29
PLENTYWOOD       N/A     34  25  69 SW10      29.97F WCI  26
POPLAR           N/A     36  27  69 SW8       30.01F WCI  29
$$

MTZ028>42-056>058-060200-
SOUTHCENTRAL AND SOUTHEAST MONTANA

CITY           SKY/WX    TMP DP  RH WIND       PRES   REMARKS
BAKER          CLEAR     33  21  61 SW10      30.09F WCI  25
BILLINGS       PTCLDY    38  13  35 W15       30.13F WCI  29
LIVINGSTON     CLOUDY    38  16  40 SW31G44   30.20F WCI  25
MILES CITY     CLEAR     37  23  56 SW13      30.08F WCI  29
FORSYTH          N/A     43  21  42 CALM      30.09F
LAUREL           N/A     37  12  36 SW10      30.13S WCI  30
ROUNDUP          N/A     42  18  38 W17       29.99F
$$

REGIONAL REPORTS...DAKOTAS

CITY           SKY/WX    TMP DP  RH WIND       PRES   REMARKS
WILLISTON      CLEAR     35  25  66 S3        30.02F
MINOT          CLOUDY    34  21  59 SW7       30.02F WCI  28
DICKINSON      CLEAR     32  23  69 SW12      30.04F WCI  23
BEACH            N/A     32  25  74 SW7       30.09F WCI  26
CROSBY           N/A     28  27  93 SW12      29.99F WCI  18
TIOGA            N/A     25  25 100 SW12      30.04F WCI  14
WATFORD CITY     N/A     27  23  86 SW5       30.03F
BISMARCK       CLEAR     34  23  64 SW5       30.10F
GRAND FORKS    CLOUDY    21  16  81 SW7       30.12F WCI  12
FARGO          CLEAR     19  16  88 CALM      30.15R
BUFFALO SD       N/A     31  21  66 W9        30.05F WCI  23
RAPID CITY     CLEAR     30  20  66 W7        30.18R WCI  23
$$

REGIONAL REPORTS...WYOMING/IDAHO/WASHINGTON

CITY           SKY/WX    TMP DP  RH WIND       PRES   REMARKS
GILLETTE       CLOUDY    29  15  56 SW15      30.17F WCI  18
SHERIDAN       PTCLDY    30  14  51 SE3       30.14S
BUFFALO WY     CLOUDY    29  11  47 W3        30.16F
CODY           CLOUDY    37  14  38 W20G25    30.17S WCI  27
YELLOWSTONE LA   N/A     18  13  80 VRB3      30.38S
IDAHO FALLS    CLOUDY    19  17  92 N7        30.51R FOG     WCI  10
SALMON         CLOUDY    19  10  68 SE6       30.41S WCI  11
BOISE          MOCLDY    41  34  76 SE10      30.43F
SPOKANE        CLOUDY    44  36  73 SE7       30.19F
$$

REGIONAL REPORTS...ALBERTA

CITY           SKY/WX    TMP DP  RH WIND       PRES   REMARKS
EDMONTON       PTCLDY    37  25  60 SW8       29.62S WCI  31
CALGARY        MOCLDY    46  23  39 CALM      29.78F
LETHBRIDGE     MOCLDY    46  23  39 W26G35    29.92S
MEDICINE HAT   CLOUDY    43  30  61 SW18G25   29.85F
CARDSTON         N/A     45  19  36 W13G20      N/A
MILK RIVER       N/A     43  25  49 W13         N/A
ONEFOUR          N/A     41  27  56 W20         N/A
$$

REGIONAL REPORTS...SASKATCHEWAN

CITY           SKY/WX    TMP DP  RH WIND       PRES   REMARKS
SWIFT CURRENT  CLEAR     34  27  75 SW15      29.84F WCI  24
REGINA         PTCLDY    27  21  80 S9        29.91F WCI  17
SASKATOON      PTCLDY    25  19  80 S9        29.83F WCI  15
CYPRESS HILLS    N/A     39  23  52 W14G21      N/A  WCI  31
VAL MARIE        N/A     30  27  86 SW9         N/A  WCI  22
ROCKGLEN         N/A     30  25  80 SW15        N/A  WCI  19
ASSINIBOIA       N/A     27  23  86 S8          N/A  WCI  18
$$




USA.gov is the U.S. government's official web portal to all federal, state and local government web resources and services.